Regional Weather Roundup
Issued by NWS Charleston, WV

Home | Current Version | Previous Version | Graphics & Text | Print | Product List | Glossary On
Versions: 1 2 3 4 5 6 7 8 9 10 11 12 13 14 15 16 17 18 19 20 21 22 23 24 25 26 27
000
ASUS41 KRLX 231710
RWRRLX
West Virginia Regional Weather Roundup
National Weather Service Charleston WV
100 PM EDT MON APR 23 2018

Note: "fair" indicates few or no clouds below 12,000 feet with no
significant weather and/or obstructions to visibility.

WVZ003-231800-
Northern Panhandle of West Virginia

CITY           SKY/WX    TMP DP  RH WIND       PRES   REMARKS
WHEELING       FAIR      68  41  37 SE15G21   30.23F
$$

WVZ009-231800-
Northwest West Virginia

CITY           SKY/WX    TMP DP  RH WIND       PRES   REMARKS
PARKERSBURG    FAIR      70  30  22 SE16G22   30.23F
$$

WVZ006-231800-
Western West Virginia

CITY           SKY/WX    TMP DP  RH WIND       PRES   REMARKS
HUNTINGTON     LGT RAIN  57  49  74 E7        30.17F
$$

WVZ015-231800-
West Central West Virginia

CITY           SKY/WX    TMP DP  RH WIND       PRES   REMARKS
CHARLESTON     LGT RAIN  61  40  45 SE9G20    30.20S
$$

WVZ022-031-231800-
North Central West Virginia

CITY           SKY/WX    TMP DP  RH WIND       PRES   REMARKS
CLARKSBURG     FAIR      71  30  21 SE10G18   30.23F
MORGANTOWN     FAIR      68  33  27 SE15      30.26S
$$

WVZ025-035-042-045-231800-
Southern West Virginia

CITY           SKY/WX    TMP DP  RH WIND       PRES   REMARKS
BECKLEY        CLOUDY    52  43  71 SE24G36   30.22F
LOGAN          FAIR      55  46  71 SE13G22   30.18S
BLUEFIELD      CLOUDY    51  39  63 SE14G33   30.22F
LEWISBURG      LGT RAIN  54  42  65 SE7       30.29F
$$

WVZ047-231800-
Northern Mountains of West Virginia

CITY           SKY/WX    TMP DP  RH WIND       PRES   REMARKS
ELKINS         FAIR      66  30  26 SE18G31   30.26F
$$

WVZ052-231800-
Eastern Panhandle of West Virginia

CITY           SKY/WX    TMP DP  RH WIND       PRES   REMARKS
MARTINSBURG    FAIR      65  39  38 S8G20     30.37F
PETERSBURG     FAIR      64  40  40 S17G23    30.32F
$$




USA.gov is the U.S. government's official web portal to all federal, state and local government web resources and services.